| time (UTC) | temp C | wind direction | speed KPH | gust KPH | rain 1hr cm | rain 24hr cm | rain mn cm | humidity % | barometer mb |
| 20260508075010 | 4 | 266 | 4.8 | 12.9 | 0.00 | 0.00 | 0.00 | 63 | 1019.8 |
| 20260508074527 | 4 | 271 | 6.4 | 12.9 | 0.00 | 0.00 | 0.00 | 63 | 1019.8 |
| 20260508074007 | 4 | 269 | 9.7 | 20.9 | 0.00 | 0.00 | 0.00 | 61 | 1019.9 |
| 20260508073507 | 4 | 267 | 11.3 | 20.9 | 0.00 | 0.00 | 0.00 | 61 | 1020.0 |
| 20260508073022 | 4 | 279 | 9.7 | 16.1 | 0.00 | 0.00 | 0.00 | 61 | 1020.0 |
| 20260508072507 | 4 | 257 | 9.7 | 14.5 | 0.00 | 0.00 | 0.00 | 62 | 1019.9 |
| 20260508072008 | 4 | 272 | 8.0 | 12.9 | 0.00 | 0.00 | 0.00 | 63 | 1019.9 |
| 20260508071524 | 4 | 276 | 8.0 | 16.1 | 0.00 | 0.00 | 0.00 | 64 | 1019.9 |
| 20260508071008 | 4 | 285 | 9.7 | 19.3 | 0.00 | 0.00 | 0.00 | 64 | 1019.9 |
| 20260508070508 | 4 | 283 | 12.9 | 30.6 | 0.00 | 0.00 | 0.00 | 64 | 1020.1 |
| 20260508070025 | 4 | 297 | 14.5 | 35.4 | 0.00 | 0.00 | 0.00 | 64 | 1020.1 |
| 20260508065509 | 4 | 281 | 24.1 | 48.3 | 0.00 | 0.00 | 0.00 | 65 | 1020.2 |
| 20260508065007 | 5 | 281 | 29.0 | 48.3 | 0.00 | 0.00 | 0.00 | 61 | 1020.0 |
| 20260508064540 | 5 | 277 | 16.1 | 24.1 | 0.00 | 0.00 | 0.00 | 60 | 1020.0 |
| 20260508064010 | 5 | 263 | 11.3 | 20.9 | 0.00 | 0.00 | 0.00 | 60 | 1019.9 |
| 20260508063511 | 5 | 255 | 9.7 | 17.7 | 0.00 | 0.00 | 0.00 | 60 | 1019.7 |
| 20260508063030 | 5 | 236 | 11.3 | 17.7 | 0.00 | 0.00 | 0.00 | 61 | 1019.7 |
| 20260508062508 | 5 | 257 | 11.3 | 17.7 | 0.00 | 0.00 | 0.00 | 60 | 1019.7 |
| 20260508062009 | 5 | 259 | 11.3 | 16.1 | 0.00 | 0.00 | 0.00 | 60 | 1019.7 |
| 20260508061523 | 5 | 266 | 11.3 | 16.1 | 0.00 | 0.00 | 0.00 | 61 | 1019.7 |
| 20260508061008 | 4 | 259 | 6.4 | 11.3 | 0.00 | 0.00 | 0.00 | 63 | 1019.7 |
| 20260508060512 | 4 | 283 | 6.4 | 11.3 | 0.00 | 0.00 | 0.00 | 63 | 1019.8 |
| 20260508060024 | 5 | 276 | 4.8 | 14.5 | 0.00 | 0.00 | 0.00 | 63 | 1019.8 |
| 20260508055508 | 5 | 277 | 6.4 | 16.1 | 0.00 | 0.00 | 0.00 | 63 | 1019.8 |
| 20260508055008 | 5 | 282 | 8.0 | 16.1 | 0.00 | 0.00 | 0.00 | 61 | 1019.7 |
| 20260508054538 | 5 | 285 | 9.7 | 14.5 | 0.00 | 0.00 | 0.00 | 62 | 1019.8 |
| 20260508054007 | 5 | 307 | 8.0 | 14.5 | 0.00 | 0.00 | 0.00 | 63 | 1019.9 |
| 20260508053511 | 5 | 296 | 8.0 | 16.1 | 0.00 | 0.00 | 0.00 | 62 | 1019.9 |
| 20260508053028 | 5 | 286 | 9.7 | 16.1 | 0.00 | 0.00 | 0.00 | 62 | 1019.9 |
| 20260508052507 | 5 | 273 | 12.9 | 19.3 | 0.00 | 0.00 | 0.00 | 61 | 1019.9 |
| 20260508052011 | 5 | 276 | 8.0 | 27.4 | 0.00 | 0.00 | 0.00 | 61 | 1019.9 |
| 20260508051518 | 5 | 278 | 14.5 | 27.4 | 0.00 | 0.00 | 0.00 | 61 | 1020.0 |
| 20260508051008 | 5 | 243 | 9.7 | 16.1 | 0.00 | 0.00 | 0.00 | 62 | 1020.0 |
| 20260508050509 | 5 | 261 | 6.4 | 20.9 | 0.00 | 0.00 | 0.00 | 61 | 1020.0 |
| 20260508050021 | 5 | 279 | 12.9 | 20.9 | 0.00 | 0.00 | 0.00 | 61 | 1020.0 |
| 20260508045509 | 5 | 252 | 4.8 | 14.5 | 0.00 | 0.00 | 0.00 | 64 | 1019.9 |
| 20260508045003 | 5 | 3 | 6.4 | 17.7 | 0.00 | 0.00 | 0.00 | 64 | 1020.0 |
| 20260508044505 | 5 | 285 | 12.9 | 27.4 | 0.00 | 0.00 | 0.00 | 61 | 1020.0 |
| 20260508044004 | 5 | 247 | 12.9 | 30.6 | 0.00 | 0.00 | 0.00 | 61 | 1020.0 |
| 20260508043504 | 6 | 262 | 17.7 | 30.6 | 0.00 | 0.00 | 0.00 | 60 | 1020.1 |
| 20260508043009 | 6 | 263 | 11.3 | 27.4 | 0.00 | 0.00 | 0.00 | 58 | 1020.1 |
| 20260508042504 | 6 | 274 | 17.7 | 27.4 | 0.00 | 0.00 | 0.00 | 59 | 1019.9 |
| 20260508042004 | 6 | 320 | 9.7 | 17.7 | 0.00 | 0.00 | 0.00 | 60 | 1020.1 |
| 20260508041515 | 6 | 313 | 11.3 | 16.1 | 0.00 | 0.00 | 0.00 | 58 | 1020.0 |
| 20260508041008 | 6 | 251 | 8.0 | 19.3 | 0.00 | 0.00 | 0.00 | 57 | 1019.8 |
| 20260508040508 | 6 | 268 | 12.9 | 20.9 | 0.00 | 0.00 | 0.00 | 56 | 1019.7 |
| 20260508040035 | 6 | 269 | 14.5 | 24.1 | 0.00 | 0.00 | 0.00 | 56 | 1019.8 |
| 20260508035508 | 6 | 271 | 11.3 | 24.1 | 0.00 | 0.00 | 0.00 | 56 | 1019.8 |
| 20260508035008 | 6 | 273 | 12.9 | 24.1 | 0.00 | 0.00 | 0.00 | 55 | 1019.7 |
| 20260508034537 | 6 | 283 | 17.7 | 24.1 | 0.00 | 0.00 | 0.00 | 55 | 1019.8 |
| 20260508034007 | 6 | 270 | 9.7 | 20.9 | 0.00 | 0.00 | 0.00 | 58 | 1019.8 |
| 20260508033509 | 6 | 257 | 11.3 | 20.9 | 0.00 | 0.00 | 0.00 | 59 | 1019.8 |
| 20260508033007 | 6 | 274 | 3.2 | 16.1 | 0.00 | 0.00 | 0.00 | 59 | 1019.8 |
| 20260508032505 | 6 | 20 | 4.8 | 12.9 | 0.00 | 0.00 | 0.00 | 58 | 1019.7 |
| 20260508032005 | 7 | 336 | 4.8 | 11.3 | 0.00 | 0.00 | 0.00 | 55 | 1019.6 |
| 20260508031515 | 7 | 274 | 6.4 | 11.3 | 0.00 | 0.00 | 0.00 | 55 | 1019.8 |
| 20260508031005 | 7 | 281 | 6.4 | 11.3 | 0.00 | 0.00 | 0.00 | 55 | 1019.8 |
| 20260508030504 | 6 | 308 | 8.0 | 17.7 | 0.00 | 0.00 | 0.00 | 55 | 1019.5 |
| 20260508030014 | 6 | 304 | 9.7 | 17.7 | 0.00 | 0.00 | 0.00 | 56 | 1019.5 |
| 20260508025508 | 6 | 283 | 3.2 | 12.9 | 0.00 | 0.00 | 0.00 | 60 | 1019.3 |
| 20260508025009 | 6 | 294 | 3.2 | 12.9 | 0.00 | 0.00 | 0.00 | 63 | 1019.2 |
| 20260508024525 | 6 | 212 | 6.4 | 19.3 | 0.00 | 0.00 | 0.00 | 62 | 1019.0 |
| 20260508024011 | 6 | 293 | 11.3 | 19.3 | 0.00 | 0.00 | 0.00 | 56 | 1019.1 |
| 20260508023509 | 6 | 243 | 8.0 | 14.5 | 0.00 | 0.00 | 0.00 | 57 | 1019.1 |
| 20260508023021 | 6 | 281 | 9.7 | 14.5 | 0.00 | 0.00 | 0.00 | 57 | 1019.0 |
| 20260508022509 | 6 | 248 | 8.0 | 12.9 | 0.00 | 0.00 | 0.00 | 57 | 1018.9 |
| 20260508022008 | 6 | 273 | 9.7 | 16.1 | 0.00 | 0.00 | 0.00 | 56 | 1018.9 |
| 20260508021507 | 7 | 255 | 8.0 | 20.9 | 0.00 | 0.00 | 0.00 | 55 | 1018.9 |
| 20260508021004 | 7 | 284 | 12.9 | 29.0 | 0.00 | 0.00 | 0.00 | 54 | 1018.9 |
| 20260508020504 | 7 | 277 | 14.5 | 29.0 | 0.00 | 0.00 | 0.00 | 54 | 1018.8 |
| 20260508020007 | 7 | 283 | 14.5 | 25.7 | 0.00 | 0.00 | 0.00 | 54 | 1018.8 |
| 20260508015504 | 7 | 269 | 16.1 | 33.8 | 0.00 | 0.00 | 0.00 | 54 | 1018.7 |
| 20260508015006 | 7 | 278 | 16.1 | 37.0 | 0.00 | 0.00 | 0.00 | 54 | 1018.6 |
| 20260508014516 | 7 | 236 | 19.3 | 37.0 | 0.00 | 0.00 | 0.00 | 54 | 1018.5 |
| 20260508014007 | 7 | 268 | 19.3 | 35.4 | 0.00 | 0.00 | 0.00 | 54 | 1018.6 |
| 20260508013505 | 7 | 283 | 19.3 | 35.4 | 0.00 | 0.00 | 0.00 | 55 | 1018.6 |
| 20260508013017 | 7 | 262 | 19.3 | 35.4 | 0.00 | 0.00 | 0.00 | 55 | 1018.6 |
| 20260508012510 | 7 | 266 | 25.7 | 35.4 | 0.00 | 0.00 | 0.00 | 55 | 1018.6 |
| 20260508012008 | 7 | 250 | 19.3 | 30.6 | 0.00 | 0.00 | 0.00 | 57 | 1018.5 |
| 20260508011523 | 7 | 252 | 14.5 | 35.4 | 0.00 | 0.00 | 0.00 | 57 | 1018.7 |
| 20260508011009 | 7 | 274 | 17.7 | 35.4 | 0.00 | 0.00 | 0.00 | 56 | 1018.8 |
| 20260508010509 | 7 | 281 | 20.9 | 35.4 | 0.00 | 0.00 | 0.00 | 55 | 1018.8 |
| 20260508010029 | 7 | 263 | 17.7 | 35.4 | 0.00 | 0.00 | 0.00 | 56 | 1018.8 |
| 20260508005505 | 7 | 274 | 24.1 | 35.4 | 0.00 | 0.00 | 0.00 | 54 | 1018.7 |
| 20260508005006 | 7 | 258 | 16.1 | 27.4 | 0.00 | 0.00 | 0.00 | 55 | 1018.7 |
| 20260508004510 | 7 | 273 | 11.3 | 32.2 | 0.00 | 0.00 | 0.00 | 54 | 1018.8 |
| 20260508004007 | 7 | 266 | 16.1 | 32.2 | 0.00 | 0.00 | 0.00 | 55 | 1018.7 |
| 20260508003508 | 7 | 254 | 14.5 | 30.6 | 0.00 | 0.00 | 0.00 | 55 | 1018.7 |
| 20260508003018 | 7 | 255 | 9.7 | 29.0 | 0.00 | 0.00 | 0.00 | 54 | 1018.8 |
| 20260508002505 | 7 | 249 | 17.7 | 33.8 | 0.00 | 0.00 | 0.00 | 54 | 1018.8 |
| 20260508002010 | 7 | 277 | 14.5 | 37.0 | 0.00 | 0.00 | 0.00 | 55 | 1018.7 |
| 20260508001519 | 7 | 240 | 24.1 | 46.7 | 0.00 | 0.00 | 0.00 | 53 | 1018.6 |
| 20260508001008 | 8 | 278 | 29.0 | 49.9 | 0.00 | 0.00 | 0.00 | 52 | 1018.5 |
| 20260508000512 | 8 | 271 | 25.7 | 49.9 | 0.00 | 0.00 | 0.00 | 52 | 1018.5 |
| 20260508000027 | 8 | 265 | 33.8 | 46.7 | 0.00 | 0.00 | 0.00 | 47 | 1018.4 |
| 20260507235507 | 8 | 279 | 20.9 | 41.8 | 0.00 | 0.00 | 0.00 | 43 | 1018.4 |
| 20260507235010 | 8 | 259 | 11.3 | 29.0 | 0.00 | 0.00 | 0.00 | 45 | 1018.1 |
| 20260507234542 | 9 | 298 | 11.3 | 38.6 | 0.00 | 0.00 | 0.00 | 44 | 1018.0 |
| 20260507234002 | 9 | 274 | 20.9 | 38.6 | 0.00 | 0.00 | 0.00 | 43 | 1018.1 |
| 20260507233504 | 9 | 295 | 14.5 | 30.6 | 0.00 | 0.00 | 0.00 | 43 | 1018.1 |
| 20260507233018 | 10 | 248 | 16.1 | 40.2 | 0.00 | 0.00 | 0.00 | 43 | 1018.2 |
| 20260507232504 | 10 | 269 | 24.1 | 49.9 | 0.00 | 0.00 | 0.00 | 42 | 1018.1 |
| 20260507232007 | 10 | 282 | 33.8 | 49.9 | 0.00 | 0.00 | 0.00 | 43 | 1018.3 |
| 20260507231515 | 9 | 276 | 29.0 | 41.8 | 0.00 | 0.00 | 0.00 | 45 | 1018.3 |
| 20260507231008 | 10 | 295 | 30.6 | 41.8 | 0.00 | 0.00 | 0.00 | 44 | 1018.2 |
| 20260507230506 | 10 | 264 | 27.4 | 38.6 | 0.00 | 0.00 | 0.00 | 45 | 1018.2 |
| 20260507230023 | 10 | 256 | 20.9 | 38.6 | 0.00 | 0.00 | 0.00 | 44 | 1018.2 |
| 20260507225509 | 10 | 269 | 19.3 | 43.5 | 0.00 | 0.00 | 0.00 | 46 | 1018.2 |
| 20260507225009 | 8 | 289 | 30.6 | 48.3 | 0.00 | 0.00 | 0.00 | 46 | 1018.5 |
| 20260507224528 | 8 | 268 | 27.4 | 48.3 | 0.00 | 0.00 | 0.00 | 47 | 1018.8 |
| 20260507224003 | 9 | 264 | 30.6 | 48.3 | 0.00 | 0.00 | 0.00 | 43 | 1018.7 |
| 20260507223503 | 10 | 254 | 24.1 | 48.3 | 0.00 | 0.00 | 0.00 | 43 | 1018.4 |
| 20260507223010 | 9 | 269 | 32.2 | 53.1 | 0.00 | 0.00 | 0.00 | 43 | 1018.5 |
| 20260507222502 | 9 | 281 | 38.6 | 53.1 | 0.00 | 0.00 | 0.00 | 42 | 1018.8 |
| 20260507222004 | 10 | 290 | 29.0 | 59.5 | 0.00 | 0.00 | 0.00 | 40 | 1018.5 |
| 20260507221522 | 10 | 285 | 30.6 | 59.5 | 0.00 | 0.00 | 0.00 | 43 | 1018.5 |
| 20260507221008 | 9 | 267 | 17.7 | 38.6 | 0.00 | 0.00 | 0.00 | 43 | 1018.6 |
| 20260507220508 | 8 | 284 | 24.1 | 38.6 | 0.00 | 0.00 | 0.00 | 43 | 1018.7 |
| 20260507220021 | 9 | 276 | 20.9 | 37.0 | 0.00 | 0.00 | 0.00 | 43 | 1018.7 |
| 20260507215510 | 10 | 290 | 20.9 | 40.2 | 0.00 | 0.00 | 0.00 | 40 | 1018.8 |
| 20260507215008 | 9 | 323 | 22.5 | 40.2 | 0.00 | 0.00 | 0.00 | 39 | 1018.8 |
| 20260507214524 | 9 | 262 | 24.1 | 37.0 | 0.00 | 0.00 | 0.00 | 45 | 1018.9 |
| 20260507214009 | 10 | 264 | 20.9 | 37.0 | 0.00 | 0.00 | 0.00 | 43 | 1019.0 |
| 20260507213504 | 10 | 248 | 16.1 | 51.5 | 0.00 | 0.00 | 0.00 | 46 | 1019.1 |
| 20260507213009 | 9 | 283 | 30.6 | 51.5 | 0.00 | 0.00 | 0.00 | 44 | 1019.0 |
| 20260507212504 | 10 | 266 | 17.7 | 38.6 | 0.00 | 0.00 | 0.00 | 43 | 1019.1 |
| 20260507212003 | 10 | 278 | 27.4 | 45.1 | 0.00 | 0.00 | 0.00 | 46 | 1019.5 |
| 20260507211510 | 10 | 260 | 14.5 | 45.1 | 0.00 | 0.00 | 0.00 | 49 | 1019.4 |
| 20260507211008 | 9 | 254 | 20.9 | 43.5 | 0.00 | 0.00 | 0.00 | 47 | 1019.4 |
| 20260507210506 | 9 | 298 | 24.1 | 51.5 | 0.00 | 0.00 | 0.00 | 46 | 1019.7 |
| 20260507210018 | 8 | 275 | 22.5 | 51.5 | 0.00 | 0.00 | 0.00 | 49 | 1019.6 |
| 20260507205506 | 8 | 276 | 35.4 | 64.4 | 0.00 | 0.00 | 0.00 | 46 | 1019.8 |
| 20260507205008 | 8 | 314 | 25.7 | 64.4 | 0.00 | 0.00 | 0.00 | 47 | 1019.8 |
| 20260507204522 | 8 | 239 | 16.1 | 49.9 | 0.00 | 0.00 | 0.00 | 48 | 1019.8 |
| 20260507204008 | 8 | 290 | 27.4 | 51.5 | 0.00 | 0.00 | 0.00 | 49 | 1019.9 |
| 20260507203511 | 8 | 256 | 33.8 | 51.5 | 0.00 | 0.00 | 0.00 | 48 | 1019.9 |
| 20260507203026 | 8 | 271 | 24.1 | 57.9 | 0.00 | 0.00 | 0.00 | 52 | 1020.1 |
| 20260507202508 | 8 | 255 | 27.4 | 57.9 | 0.00 | 0.00 | 0.00 | 48 | 1019.9 |
| 20260507202004 | 9 | 257 | 14.5 | 48.3 | 0.00 | 0.00 | 0.00 | 52 | 1019.9 |
| 20260507201507 | 8 | 252 | 20.9 | 43.5 | 0.00 | 0.00 | 0.00 | 53 | 1019.8 |
| 20260507201004 | 8 | 259 | 27.4 | 51.5 | 0.00 | 0.00 | 0.00 | 52 | 1020.0 |
| 20260507200504 | 7 | 244 | 27.4 | 51.5 | 0.00 | 0.00 | 0.00 | 52 | 1020.1 |
| 20260507200014 | 8 | 265 | 29.0 | 45.1 | 0.00 | 0.00 | 0.00 | 50 | 1020.2 |
| 20260507195503 | 8 | 262 | 25.7 | 46.7 | 0.00 | 0.00 | 0.00 | 54 | 1020.3 |
| 20260507195011 | 8 | 288 | 22.5 | 56.3 | 0.00 | 0.00 | 0.00 | 53 | 1019.9 |
| 20260507194529 | 7 | 285 | 33.8 | 56.3 | 0.00 | 0.00 | 0.00 | 50 | 1020.1 |
| 20260507194007 | 8 | 294 | 30.6 | 49.9 | 0.00 | 0.00 | 0.00 | 53 | 1019.8 |
| 20260507193513 | 7 | 272 | 32.2 | 48.3 | 0.00 | 0.00 | 0.00 | 52 | 1019.9 |
| 20260507193020 | 7 | 274 | 29.0 | 43.5 | 0.00 | 0.00 | 0.00 | 52 | 1020.1 |
| 20260507192508 | 7 | 262 | 30.6 | 46.7 | 0.00 | 0.00 | 0.00 | 51 | 1020.1 |
| 20260507192007 | 7 | 285 | 29.0 | 48.3 | 0.00 | 0.00 | 0.00 | 49 | 1020.1 |
| 20260507191526 | 7 | 288 | 35.4 | 48.3 | 0.00 | 0.00 | 0.00 | 50 | 1020.2 |
| 20260507191009 | 7 | 246 | 22.5 | 38.6 | 0.00 | 0.00 | 0.00 | 52 | 1020.2 |
| 20260507190509 | 6 | 271 | 27.4 | 49.9 | 0.00 | 0.00 | 0.00 | 51 | 1020.5 |
| 20260507190013 | 6 | 274 | 29.0 | 51.5 | 0.00 | 0.00 | 0.00 | 50 | 1020.6 |
| 20260507185507 | 7 | 274 | 25.7 | 51.5 | 0.00 | 0.00 | 0.00 | 53 | 1020.6 |
| 20260507185008 | 6 | 274 | 30.6 | 51.5 | 0.00 | 0.00 | 0.00 | 50 | 1020.6 |
| 20260507184511 | 6 | 291 | 24.1 | 49.9 | 0.00 | 0.00 | 0.00 | 51 | 1020.7 |
| 20260507184008 | 6 | 277 | 27.4 | 48.3 | 0.00 | 0.00 | 0.00 | 49 | 1020.8 |
| 20260507183508 | 7 | 248 | 25.7 | 41.8 | 0.00 | 0.00 | 0.00 | 49 | 1020.7 |
| 20260507183020 | 6 | 247 | 27.4 | 41.8 | 0.00 | 0.03 | 0.00 | 51 | 1020.6 |
| 20260507182508 | 6 | 268 | 27.4 | 41.8 | 0.00 | 0.03 | 0.00 | 51 | 1020.7 |
| 20260507182010 | 6 | 257 | 25.7 | 38.6 | 0.00 | 0.05 | 0.00 | 51 | 1020.6 |
| 20260507181526 | 6 | 240 | 20.9 | 48.3 | 0.00 | 0.05 | 0.00 | 50 | 1020.6 |
| 20260507181007 | 5 | 309 | 22.5 | 48.3 | 0.00 | 0.08 | 0.00 | 52 | 1020.6 |
| 20260507180508 | 5 | 282 | 14.5 | 37.0 | 0.00 | 0.10 | 0.00 | 52 | 1020.8 |
| 20260507180026 | 5 | 277 | 24.1 | 37.0 | 0.00 | 0.13 | 0.00 | 51 | 1020.7 |
| 20260507175508 | 6 | 264 | 16.1 | 33.8 | 0.00 | 0.18 | 0.00 | 54 | 1020.9 |
| 20260507175008 | 5 | 263 | 20.9 | 33.8 | 0.00 | 0.23 | 0.00 | 51 | 1021.0 |
| 20260507174513 | 5 | 262 | 12.9 | 33.8 | 0.00 | 0.28 | 0.00 | 54 | 1021.2 |
| 20260507174006 | 5 | 299 | 17.7 | 33.8 | 0.00 | 0.33 | 0.00 | 53 | 1021.2 |
| 20260507173513 | 5 | 284 | 19.3 | 30.6 | 0.00 | 0.33 | 0.00 | 53 | 1021.1 |
| 20260507173034 | 5 | 240 | 19.3 | 30.6 | 0.00 | 0.33 | 0.00 | 53 | 1021.1 |
| 20260507172508 | 4 | 268 | 14.5 | 25.7 | 0.00 | 0.33 | 0.00 | 52 | 1021.3 |
| 20260507172004 | 4 | 255 | 14.5 | 29.0 | 0.00 | 0.33 | 0.00 | 52 | 1021.4 |
| 20260507171521 | 4 | 300 | 11.3 | 29.0 | 0.00 | 0.33 | 0.00 | 55 | 1021.5 |
| 20260507171010 | 3 | 286 | 16.1 | 33.8 | 0.00 | 0.33 | 0.00 | 53 | 1021.6 |
| 20260507170509 | 3 | 278 | 19.3 | 33.8 | 0.00 | 0.33 | 0.00 | 53 | 1021.6 |
| 20260507170024 | 3 | 257 | 19.3 | 29.0 | 0.00 | 0.33 | 0.00 | 53 | 1021.5 |
| 20260507165508 | 3 | 279 | 11.3 | 19.3 | 0.00 | 0.33 | 0.00 | 54 | 1021.7 |
| 20260507165009 | 3 | 297 | 9.7 | 24.1 | 0.00 | 0.33 | 0.00 | 55 | 1021.7 |
| 20260507164533 | 2 | 294 | 11.3 | 24.1 | 0.00 | 0.33 | 0.00 | 56 | 1021.7 |
| 20260507164011 | 2 | 285 | 14.5 | 24.1 | 0.00 | 0.33 | 0.00 | 55 | 1021.7 |
| 20260507163507 | 2 | 279 | 12.9 | 27.4 | 0.00 | 0.33 | 0.00 | 56 | 1021.7 |
| 20260507163014 | 2 | 266 | 14.5 | 27.4 | 0.00 | 0.33 | 0.00 | 56 | 1021.7 |
| 20260507162508 | 2 | 286 | 12.9 | 27.4 | 0.00 | 0.33 | 0.00 | 57 | 1021.7 |
| 20260507162006 | 2 | 274 | 14.5 | 27.4 | 0.00 | 0.33 | 0.00 | 57 | 1021.8 |
| 20260507161518 | 2 | 281 | 9.7 | 20.9 | 0.00 | 0.33 | 0.00 | 58 | 1022.0 |
| 20260507161007 | 2 | 231 | 3.2 | 9.7 | 0.00 | 0.33 | 0.00 | 59 | 1022.1 |
| 20260507160512 | 2 | 207 | 1.6 | 6.4 | 0.00 | 0.33 | 0.00 | 59 | 1022.1 |
| 20260507160025 | 1 | 229 | 0.0 | 4.8 | 0.00 | 0.33 | 0.00 | 56 | 1022.2 |
| 20260507155509 | 1 | 186 | 1.6 | 8.0 | 0.00 | 0.33 | 0.00 | 59 | 1022.2 |
| 20260507155010 | 1 | 263 | 3.2 | 8.0 | 0.00 | 0.33 | 0.00 | 56 | 1022.3 |
| 20260507154523 | 1 | 304 | 3.2 | 6.4 | 0.00 | 0.33 | 0.00 | 56 | 1022.4 |
| 20260507154008 | 1 | 154 | 3.2 | 8.0 | 0.00 | 0.33 | 0.00 | 59 | 1022.4 |
| 20260507153507 | 1 | 226 | 4.8 | 8.0 | 0.00 | 0.33 | 0.00 | 57 | 1022.4 |
| 20260507153034 | 0 | 347 | 1.6 | 6.4 | 0.00 | 0.33 | 0.00 | 58 | 1022.5 |
| 20260507152520 | 0 | 323 | 3.2 | 9.7 | 0.00 | 0.33 | 0.00 | 57 | 1022.4 |
| 20260507152010 | 0 | 250 | 3.2 | 9.7 | 0.00 | 0.33 | 0.00 | 57 | 1022.5 |
| 20260507151531 | 0 | 173 | 0.0 | 8.0 | 0.00 | 0.33 | 0.00 | 58 | 1022.5 |
| 20260507151004 | 0 | 165 | 4.8 | 8.0 | 0.00 | 0.33 | 0.00 | 58 | 1022.7 |
| 20260507150505 | 0 | 214 | 1.6 | 8.0 | 0.00 | 0.33 | 0.00 | 59 | 1022.7 |
| 20260507150018 | 0 | 200 | 4.8 | 8.0 | 0.00 | 0.33 | 0.00 | 58 | 1022.8 |
| 20260507145507 | 0 | 165 | 3.2 | 6.4 | 0.00 | 0.33 | 0.00 | 57 | 1022.9 |
| 20260507145011 | 0 | 245 | 1.6 | 3.2 | 0.00 | 0.33 | 0.00 | 56 | 1023.0 |
| 20260507144530 | 0 | 195 | 0.0 | 3.2 | 0.00 | 0.33 | 0.00 | 60 | 1023.0 |
| 20260507144007 | -1 | 205 | 0.0 | 0.0 | 0.00 | 0.33 | 0.00 | 63 | 1023.0 |
| 20260507143508 | -1 | 205 | 0.0 | 1.6 | 0.00 | 0.33 | 0.00 | 71 | 1023.0 |
| 20260507143027 | -2 | 219 | 0.0 | 1.6 | 0.00 | 0.33 | 0.00 | 71 | 1023.0 |
| 20260507142509 | -2 | 205 | 0.0 | 0.0 | 0.00 | 0.33 | 0.00 | 69 | 1023.1 |
| 20260507142008 | -3 | 205 | 0.0 | 0.0 | 0.00 | 0.33 | 0.00 | 72 | 1023.4 |
| 20260507141529 | -3 | 205 | 0.0 | 0.0 | 0.00 | 0.33 | 0.00 | 75 | 1023.5 |
| 20260507141011 | -3 | 205 | 0.0 | 1.6 | 0.00 | 0.33 | 0.00 | 74 | 1023.5 |
| 20260507140512 | -3 | 219 | 1.6 | 1.6 | 0.00 | 0.33 | 0.00 | 74 | 1023.5 |
| 20260507140028 | -3 | 263 | 0.0 | 1.6 | 0.00 | 0.33 | 0.00 | 74 | 1023.5 |
| 20260507135508 | -3 | 263 | 0.0 | 1.6 | 0.00 | 0.33 | 0.00 | 75 | 1023.5 |
| 20260507135007 | -3 | 263 | 0.0 | 1.6 | 0.00 | 0.33 | 0.00 | 74 | 1023.6 |
| 20260507134518 | -3 | 217 | 0.0 | 1.6 | 0.00 | 0.33 | 0.00 | 72 | 1023.4 |
| 20260507134004 | -3 | 117 | 0.0 | 1.6 | 0.00 | 0.33 | 0.00 | 74 | 1023.4 |
| 20260507133503 | -3 | 148 | 0.0 | 1.6 | 0.00 | 0.33 | 0.00 | 71 | 1023.4 |
| 20260507133006 | -3 | 148 | 0.0 | 1.6 | 0.00 | 0.33 | 0.00 | 75 | 1023.5 |
| 20260507132505 | -3 | 148 | 0.0 | 1.6 | 0.00 | 0.33 | 0.00 | 79 | 1023.5 |
| 20260507132006 | -4 | 224 | 0.0 | 1.6 | 0.00 | 0.33 | 0.00 | 76 | 1023.5 |
| 20260507131516 | -5 | 224 | 0.0 | 1.6 | 0.00 | 0.33 | 0.00 | 81 | 1023.2 |
| 20260507131005 | -5 | 224 | 0.0 | 1.6 | 0.00 | 0.33 | 0.00 | 81 | 1023.2 |
| 20260507130506 | -5 | 224 | 0.0 | 3.2 | 0.00 | 0.33 | 0.00 | 80 | 1023.2 |
| 20260507130009 | -5 | 224 | 1.6 | 3.2 | 0.00 | 0.33 | 0.00 | 80 | 1023.4 |
| 20260507125507 | -5 | 246 | 1.6 | 3.2 | 0.00 | 0.33 | 0.00 | 81 | 1023.4 |
| 20260507125004 | -5 | 204 | 0.0 | 0.0 | 0.00 | 0.33 | 0.00 | 82 | 1023.2 |
| 20260507124513 | -5 | 204 | 0.0 | 0.0 | 0.00 | 0.33 | 0.00 | 82 | 1023.3 |
| 20260507124008 | -5 | 204 | 0.0 | 1.6 | 0.00 | 0.33 | 0.00 | 82 | 1023.2 |
| 20260507123505 | -5 | 204 | 0.0 | 1.6 | 0.00 | 0.33 | 0.00 | 82 | 1023.1 |
| 20260507123009 | -5 | 218 | 0.0 | 1.6 | 0.00 | 0.33 | 0.00 | 82 | 1023.2 |
| 20260507122505 | -5 | 218 | 0.0 | 1.6 | 0.00 | 0.33 | 0.00 | 82 | 1023.1 |
| 20260507122006 | -5 | 232 | 0.0 | 0.0 | 0.00 | 0.33 | 0.00 | 81 | 1023.2 |
| 20260507121510 | -5 | 232 | 0.0 | 1.6 | 0.00 | 0.33 | 0.00 | 79 | 1023.2 |
| 20260507121004 | -5 | 232 | 0.0 | 1.6 | 0.00 | 0.33 | 0.00 | 80 | 1023.2 |
| 20260507120504 | -5 | 222 | 1.6 | 3.2 | 0.00 | 0.33 | 0.00 | 77 | 1023.1 |
| 20260507120008 | -5 | 124 | 0.0 | 3.2 | 0.00 | 0.33 | 0.00 | 80 | 1023.0 |
| 20260507115506 | -4 | 110 | 1.6 | 3.2 | 0.00 | 0.33 | 0.00 | 79 | 1022.8 |
| 20260507115005 | -4 | 110 | 1.6 | 6.4 | 0.00 | 0.33 | 0.00 | 79 | 1022.8 |
| 20260507114512 | -4 | 139 | 3.2 | 6.4 | 0.00 | 0.33 | 0.00 | 80 | 1022.9 |
| 20260507114005 | -4 | 91 | 3.2 | 6.4 | 0.00 | 0.33 | 0.00 | 79 | 1022.9 |
| 20260507113505 | -4 | 117 | 3.2 | 6.4 | 0.00 | 0.33 | 0.00 | 78 | 1022.8 |
| 20260507113034 | -4 | 103 | 3.2 | 4.8 | 0.00 | 0.33 | 0.00 | 79 | 1022.8 |
| 20260507112507 | -4 | 95 | 3.2 | 4.8 | 0.00 | 0.33 | 0.00 | 77 | 1022.8 |
| 20260507112007 | -4 | 108 | 3.2 | 4.8 | 0.00 | 0.33 | 0.00 | 78 | 1022.7 |
| 20260507111512 | -4 | 108 | 3.2 | 4.8 | 0.00 | 0.33 | 0.00 | 78 | 1022.7 |
| 20260507111007 | -4 | 101 | 1.6 | 3.2 | 0.00 | 0.33 | 0.00 | 79 | 1022.7 |
| 20260507110507 | -4 | 101 | 1.6 | 3.2 | 0.00 | 0.33 | 0.00 | 78 | 1022.7 |
| 20260507110016 | -4 | 112 | 1.6 | 3.2 | 0.00 | 0.33 | 0.00 | 78 | 1022.7 |
| 20260507105504 | -4 | 91 | 3.2 | 3.2 | 0.00 | 0.33 | 0.00 | 78 | 1022.7 |
| 20260507105004 | -4 | 101 | 1.6 | 3.2 | 0.00 | 0.33 | 0.00 | 78 | 1022.6 |
| 20260507104506 | -4 | 101 | 1.6 | 4.8 | 0.00 | 0.33 | 0.00 | 79 | 1022.7 |
| 20260507104007 | -4 | 85 | 1.6 | 4.8 | 0.00 | 0.33 | 0.00 | 79 | 1022.7 |
| 20260507103506 | -4 | 103 | 3.2 | 3.2 | 0.00 | 0.33 | 0.00 | 79 | 1022.7 |
| 20260507103017 | -4 | 112 | 1.6 | 3.2 | 0.00 | 0.33 | 0.00 | 80 | 1022.7 |
| 20260507102504 | -4 | 113 | 1.6 | 3.2 | 0.00 | 0.33 | 0.00 | 79 | 1022.7 |
| 20260507102006 | -5 | 113 | 1.6 | 3.2 | 0.00 | 0.33 | 0.00 | 78 | 1022.7 |
| 20260507101518 | -5 | 165 | 0.0 | 0.0 | 0.00 | 0.33 | 0.00 | 78 | 1022.8 |
| 20260507101005 | -5 | 165 | 0.0 | 0.0 | 0.00 | 0.33 | 0.00 | 76 | 1022.7 |
| 20260507100503 | -5 | 165 | 0.0 | 0.0 | 0.00 | 0.33 | 0.00 | 77 | 1022.8 |
| 20260507100014 | -5 | 165 | 0.0 | 0.0 | 0.00 | 0.33 | 0.00 | 76 | 1022.7 |
| 20260507095506 | -5 | 165 | 0.0 | 0.0 | 0.00 | 0.33 | 0.00 | 75 | 1022.7 |
| 20260507095009 | -5 | 164 | 0.0 | 0.0 | 0.00 | 0.33 | 0.00 | 75 | 1022.8 |
| 20260507094516 | -4 | 165 | 0.0 | 3.2 | 0.00 | 0.33 | 0.00 | 75 | 1022.9 |
| 20260507094007 | -4 | 164 | 0.0 | 3.2 | 0.00 | 0.33 | 0.00 | 73 | 1022.8 |
| 20260507093506 | -4 | 207 | 0.0 | 3.2 | 0.00 | 0.33 | 0.00 | 73 | 1022.8 |
| 20260507093005 | -4 | 249 | 0.0 | 0.0 | 0.00 | 0.33 | 0.00 | 74 | 1022.8 |
| 20260507092507 | -4 | 162 | 0.0 | 0.0 | 0.00 | 0.33 | 0.00 | 73 | 1022.7 |
| 20260507092008 | -4 | 162 | 0.0 | 0.0 | 0.00 | 0.33 | 0.00 | 74 | 1022.8 |
| 20260507091510 | -4 | 211 | 0.0 | 1.6 | 0.00 | 0.33 | 0.00 | 72 | 1022.9 |
| 20260507091004 | -4 | 214 | 0.0 | 1.6 | 0.00 | 0.33 | 0.00 | 70 | 1022.8 |
| 20260507090512 | -4 | 269 | 1.6 | 1.6 | 0.00 | 0.33 | 0.00 | 71 | 1022.9 |
| 20260507090015 | -4 | 187 | 0.0 | 1.6 | 0.00 | 0.33 | 0.00 | 72 | 1022.9 |
| 20260507085504 | -4 | 196 | 0.0 | 1.6 | 0.00 | 0.33 | 0.00 | 70 | 1022.9 |
| 20260507085008 | -4 | 259 | 0.0 | 1.6 | 0.00 | 0.33 | 0.00 | 69 | 1022.9 |
| 20260507084517 | -4 | 259 | 0.0 | 1.6 | 0.00 | 0.33 | 0.00 | 70 | 1022.8 |
| 20260507084009 | -3 | 98 | 0.0 | 3.2 | 0.00 | 0.33 | 0.00 | 68 | 1022.8 |
| 20260507083508 | -3 | 98 | 0.0 | 6.4 | 0.00 | 0.33 | 0.00 | 67 | 1022.8 |
| 20260507083016 | -3 | 91 | 4.8 | 6.4 | 0.00 | 0.33 | 0.00 | 66 | 1023.0 |
| 20260507082507 | -3 | 113 | 3.2 | 6.4 | 0.00 | 0.33 | 0.00 | 65 | 1022.9 |
| 20260507082007 | -3 | 123 | 3.2 | 6.4 | 0.00 | 0.33 | 0.00 | 65 | 1022.9 |
| 20260507081509 | -3 | 105 | 3.2 | 8.0 | 0.00 | 0.33 | 0.00 | 65 | 1022.9 |
| 20260507081003 | -3 | 105 | 4.8 | 8.0 | 0.00 | 0.33 | 0.00 | 65 | 1022.9 |
| 20260507080508 | -3 | 100 | 4.8 | 6.4 | 0.00 | 0.33 | 0.00 | 66 | 1023.0 |
| 20260507080012 | -3 | 99 | 1.6 | 4.8 | 0.00 | 0.33 | 0.00 | 66 | 1022.8 |
| 20260507075504 | -3 | 263 | 0.0 | 0.0 | 0.00 | 0.33 | 0.00 | 66 | 1023.0 |